Flag for India Weather past 2 weeks in Karaikudi, Tamil Nadu, India

79 °F

Light rain. Broken clouds.

Feels Like: 83 °F
Forecast: 74 / 83 °F
Wind: 5 mph from Northeast

Location: Tiruchchirapalli

Current Time: Nov 29, 2015 at 6:06:53 PM

Latest Report: Nov 29, 2015 at 5:30 PM

Visibility: 2 mi

Pressure: 29.86 "Hg

Humidity: 94%

Dew point: 77 °F

Location of KaraikudiLocation

Historic Weather in Karaikudi — Graph


Karaikudi temperature yesterday

Maximum temperature yesterday: 82 °F (at 12:00 PM)
Minimum temperature yesterday: 75 °F (at 4:30 AM)
Average temperature yesterday: 79 °F

Past Weeks' High & Low Weather Summary

High88 °F (Nov 17, 2:30 PM)100% (Nov 14, 9:10 PM)29.95 "Hg (Nov 14, 9:10 PM)
Low70 °F (Nov 15, 5:30 AM)52% (Nov 25, 2:00 PM)29.68 "Hg (Nov 16, 2:00 PM)
Average79 °F85%29.83 "Hg
* Reported Nov 14 4:40 PM — Nov 29 5:00 PM, Karaikudi, Weather by CustomWeather, © 2015

Note: Actual official high and low records may vary slightly from our data, if they occured in-between our weather recording intervals... More about our weather records


Karaikudi weather history for previous 24 hours

Time TempWeatherWind HumidityBarometerVisibility
5:00 PM
Sun, Nov 29
79 °FRain. Broken clouds.7 mph94%29.86 "Hg1 mi
4:30 PM81 °FRain. Broken clouds.10 mph84%29.83 "Hg1 mi
4:00 PM82 °FFog.10 mph79%29.83 "Hg2 mi
3:30 PM82 °FScattered clouds.9 mph79%29.83 "Hg2 mi
3:00 PM84 °FScattered clouds.9 mph74%29.83 "Hg2 mi
2:30 PM84 °FBroken clouds.10 mph74%29.83 "Hg2 mi
2:00 PM84 °FBroken clouds.9 mph74%29.86 "Hg2 mi
1:30 PM82 °FBroken clouds.10 mph79%29.86 "Hg2 mi
12:00 PM82 °FBroken clouds.12 mph74%29.92 "Hg2 mi
11:30 AM82 °FBroken clouds.13 mph74%29.92 "Hg2 mi
10:30 AM81 °FFog.9 mph79%29.95 "Hg1 mi
10:00 AM81 °FFog.7 mph79%29.95 "Hg1 mi
9:30 AM79 °FFog.5 mph79%29.95 "Hg1 mi
9:00 AM79 °FFog.7 mph79%29.95 "Hg1 mi
8:30 AM77 °FFog.6 mph83%29.92 "Hg1 mi
8:00 AM77 °FFog.5 mph83%29.92 "Hg1 mi
7:30 AM77 °FFog.3 mph83%29.92 "Hg1 mi
7:00 AM77 °FFog.2 mph83%29.89 "Hg1 mi
6:30 AM75 °FFog.3 mph89%29.89 "Hg1 mi
5:30 AM75 °FFog.3 mph89%29.89 "Hg1 mi
5:00 AM75 °FFog.5 mph89%29.89 "Hg2 mi
4:30 AM75 °FFog.5 mph89%29.86 "Hg2 mi
3:30 AM75 °FFog.6 mph89%29.86 "Hg2 mi
3:00 AM75 °FFog.6 mph89%29.89 "Hg2 mi
2:30 AM75 °FFog.6 mph89%29.89 "Hg2 mi
2:00 AM75 °FFog.6 mph94%29.89 "Hg2 mi
1:00 AM75 °FFog.5 mph94%29.92 "Hg2 mi
12:30 AM77 °FFog.5 mph89%29.92 "Hg2 mi
12:00 AM77 °FFog.2 mph89%29.95 "Hg2 mi
11:30 PM
Sat, Nov 28
77 °FFog.2 mph89%29.95 "Hg2 mi
11:00 PM77 °FFog.2 mph83%29.95 "Hg2 mi
10:30 PM77 °FFog.2 mph83%29.95 "Hg2 mi
10:00 PM77 °FFog.2 mph83%29.95 "Hg2 mi
9:30 PM77 °FFog.2 mph89%29.95 "Hg3 mi
9:00 PM77 °FFog.3 mph89%29.95 "Hg3 mi
8:30 PM77 °FFog.3 mph89%29.95 "Hg3 mi
8:00 PM79 °FFog.3 mph84%29.95 "Hg3 mi
7:30 PM79 °FFog.5 mph84%29.92 "Hg3 mi
6:00 PM81 °FScattered clouds.3 mph79%29.89 "Hg4 mi
Weather by CustomWeather, © 2015

See weather overviewHow to use our weather pages